GFSWCAN_850_rhum_159.txt.gz
RH
90 74 68 73 75 72 77 80 80 79 73 75 81 83 84 80 85 96 98 100 94 99 86 84 94 98 98 72 89 86 90 99 100 99 97 96 89 74 71 66 76 78 85 90 89 92 87 48 41 52 68 76 62 62
88 85 79 79 77 70 63 66 70 69 68 68 70 75 80 79 85 99 99 93 99 100 98 95 93 88 100 99 99 84 71 87 89 94 93 84 79 79 72 83 63 69 78 83 75 80 69 71 55 57 57 61 68 62
70 63 68 68 71 70 64 67 72 76 79 74 69 63 62 59 69 96 99 100 99 100 98 99 78 73 84 98 99 100 79 62 61 45 76 79 62 73 84 85 69 68 66 88 80 84 89 85 71 63 62 64 66 66
83 80 80 73 72 74 64 68 72 78 89 94 100 75 69 66 70 93 98 99 88 94 100 85 88 68 94 100 100 98 75 75 55 45 69 78 76 59 80 72 70 77 69 83 97 94 84 82 72 69 69 65 69 72
72 77 76 76 68 67 70 69 77 86 94 92 100 93 79 74 75 96 99 99 98 84 99 98 95 74 97 100 90 89 82 75 49 62 82 77 57 57 67 73 88 75 75 86 91 83 77 81 76 70 65 66 66 65
66 72 77 80 85 84 82 90 92 92 98 98 98 89 75 70 73 97 99 99 99 100 99 99 98 100 100 100 100 85 69 70 58 52 75 59 50 47 74 62 50 58 53 43 56 72 68 72 74 70 68 68 66 64
98 98 99 98 98 96 94 94 97 98 98 98 98 85 75 72 82 99 96 85 78 99 99 99 99 100 99 92 88 72 46 44 35 50 59 48 49 49 75 60 68 60 55 50 52 71 86 77 79 73 69 68 62 61
99 99 98 96 99 98 98 98 98 98 94 91 96 90 74 75 91 97 100 97 93 91 99 99 98 99 99 70 58 49 42 40 50 55 47 58 60 63 72 67 86 77 68 71 70 61 66 78 76 74 69 66 64 62
100 100 100 100 99 98 98 99 99 99 100 97 86 73 79 98 99 95 98 100 100 99 99 99 95 98 69 62 58 48 45 88 65 86 63 61 75 66 64 84 89 76 66 74 68 64 78 79 76 72 68 63 64 60
81 87 90 98 98 96 99 97 98 98 84 84 77 98 100 98 87 81 100 100 100 96 87 92 76 88 61 72 86 76 65 92 83 77 64 90 88 65 65 70 66 63 59 67 76 84 81 76 73 68 66 63 56 56
78 83 98 97 93 84 85 88 88 91 86 93 97 99 97 99 98 95 99 99 100 99 81 70 66 80 56 84 94 76 93 91 86 77 83 94 91 74 68 66 66 55 51 54 53 57 66 70 74 65 58 56 57 61
94 99 99 92 87 88 90 92 88 94 96 82 95 100 97 99 99 98 99 96 91 92 80 76 63 62 69 56 82 81 89 91 83 80 86 98 87 70 66 66 62 60 59 61 58 61 71 68 62 57 56 59 63 64
100 100 94 82 90 89 84 83 95 84 77 95 80 85 89 99 95 87 99 98 97 85 74 65 82 60 66 65 94 90 90 94 75 89 80 82 86 79 67 64 67 66 65 61 61 63 63 59 56 57 60 63 71 74
99 97 86 90 88 79 86 94 82 78 68 49 63 96 84 95 88 78 80 84 71 71 66 63 87 79 75 90 96 80 89 81 91 98 86 95 89 78 71 66 63 68 66 64 63 61 59 62 63 65 71 78 71 57
93 95 90 88 91 90 92 79 84 68 48 63 62 84 94 82 95 97 90 76 73 66 64 74 79 80 98 95 91 86 89 93 87 87 91 91 80 73 72 69 66 66 66 65 65 65 66 67 68 76 78 66 56 53
99 98 100 99 99 100 93 86 51 50 69 80 90 96 99 98 96 88 82 83 72 69 58 51 94 91 98 92 90 88 90 92 86 94 88 89 77 72 69 69 68 69 70 70 69 69 71 75 74 69 60 56 55 53
96 99 96 75 69 69 44 37 48 71 84 88 98 100 100 100 100 99 82 77 66 57 95 90 83 61 90 96 97 89 89 90 98 96 92 78 71 69 69 69 70 70 71 72 72 72 70 67 63 60 57 56 55 58
93 86 63 51 41 33 34 54 64 80 96 98 97 100 100 100 96 86 82 64 53 64 66 73 76 81 94 90 94 93 97 100 99 95 87 77 69 70 70 70 73 73 70 65 68 70 69 67 64 61 58 56 58 64
87 66 55 51 42 44 63 64 70 95 98 98 98 100 98 99 95 81 70 61 56 64 70 80 97 94 88 98 93 89 98 98 100 95 83 75 71 70 73 74 69 70 70 70 70 73 74 70 66 65 63 60 61 66
57 57 45 42 35 53 72 73 70 81 97 98 98 98 97 96 86 71 60 57 54 68 91 97 100 99 100 98 99 99 100 97 82 89 89 82 78 76 76 72 70 73 75 76 77 80 77 72 72 74 66 67 73 75
33 33 40 36 47 64 80 81 83 87 93 98 95 81 77 65 69 73 68 66 72 95 99 100 100 99 100 92 88 81 79 76 72 71 80 86 82 79 76 76 78 80 82 90 91 88 83 74 76 81 80 82 90 94
24 26 34 52 64 74 81 88 83 85 87 97 85 83 88 86 68 83 80 86 97 100 100 92 87 92 94 97 98 91 90 92 86 79 80 83 89 93 90 87 92 93 98 99 100 93 84 81 89 95 95 94 99 99
24 27 33 46 60 62 70 71 70 73 87 90 77 83 92 70 70 80 100 100 98 97 92 90 92 94 96 97 97 97 92 91 94 92 92 93 92 93 97 94 97 96 96 97 98 96 95 95 92 93 95 97 94 99
29 34 44 60 60 91 69 69 72 75 70 86 90 96 93 72 72 88 96 100 99 99 99 98 99 99 99 99 100 98 96 97 96 98 96 98 100 96 98 95 93 91 93 97 97 94 95 96 95 96 97 98 95 96
38 68 60 88 84 84 90 91 90 86 94 94 93 94 88 88 92 93 96 98 99 100 100 100 80 80 86 99 100 99 99 98 99 94 92 96 93 90 93 90 92 94 98 97 95 95 95 96 97 98 97 96 93 95
88 80 79 92 88 83 90 91 93 94 95 97 94 94 90 91 76 75 96 72 54 49 55 54 56 69 74 86 82 86 94 99 99 94 90 89 90 90 86 89 90 91 93 94 96 96 96 96 96 96 96 98 97 93
93 91 74 83 85 78 86 85 81 89 94 91 97 99 87 76 81 86 97 79 59 59 64 60 60 68 86 93 93 94 94 98 100 96 92 92 91 89 92 94 92 95 98 96 96 96 96 96 96 96 97 99 98 95
86 90 84 86 89 86 93 96 92 86 92 87 86 86 67 68 83 91 93 89 70 58 58 62 74 82 84 87 88 87 87 88 93 94 95 93 93 94 91 92 94 92 89 94 98 98 97 96 96 97 96 96 100 100
92 93 86 95 94 100 98 96 100 99 100 94 90 100 95 93 95 99 100 98 83 65 56 59 70 76 81 86 89 90 89 89 86 90 90 91 89 87 90 94 97 95 91 92 91 95 98 97 93 95 100 100 100 100
90 87 92 100 99 91 97 98 96 100 100 100 100 100 99 99 100 99 100 100 95 81 75 76 65 66 80 82 89 94 91 94 98 91 100 98 98 97 94 90 91 92 95 96 97 95 96 98 98 98 100 100 100 100
87 84 81 92 99 93 94 100 98 99 100 100 100 100 97 98 100 100 100 100 100 100 100 100 100 100 100 100 99 100 99 91 87 86 86 88 93 94 94 87 88 97 98 97 96 96 97 99 100 100 100 100 100 100
84 83 96 97 96 99 100 99 99 93 94 98 98 100 100 100 100 100 100 100 99 99 100 99 100 100 100 100 99 100 100 100 98 95 91 90 94 95 93 92 92 93 96 97 97 96 96 100 100 100 100 100 100 98
93 95 99 98 97 94 92 90 88 85 83 84 93 96 98 98 93 94 91 92 100 100 100 100 100 100 100 100 99 96 98 98 99 97 96 98 98 96 96 96 96 95 95 96 96 96 97 100 100 100 100 98 87 82

GFSWCAN_850_rhum_165.txt.gz
RH
99 87 89 86 56 73 80 83 69 60 52 49 50 60 75 77 77 82 98 98 92 99 86 80 88 99 99 99 96 94 86 93 98 98 90 93 88 77 73 62 84 88 91 92 95 94 87 48 44 48 56 74 64 66
92 86 84 61 62 79 82 76 65 54 55 57 60 71 71 73 70 81 92 91 91 99 88 91 81 71 68 74 89 98 100 98 85 95 92 86 96 91 79 82 62 78 83 83 80 75 62 56 51 42 45 54 62 65
83 74 68 61 66 84 80 81 76 60 62 62 61 69 76 73 67 79 90 99 99 98 95 97 89 55 81 59 68 97 94 89 99 100 91 83 88 74 92 91 68 66 67 88 77 75 70 80 64 50 49 48 54 52
80 76 68 66 68 73 72 70 70 63 59 62 67 62 63 83 83 89 91 93 96 98 98 78 63 72 61 69 67 80 82 76 88 96 98 96 86 62 63 60 67 74 69 80 81 87 87 83 66 60 57 54 58 62
78 68 63 72 71 72 70 68 64 65 59 54 64 59 60 68 90 97 95 82 83 92 97 98 97 69 64 65 74 72 91 98 99 98 99 93 78 68 73 69 74 66 67 77 77 78 73 74 67 62 58 60 58 57
80 62 52 70 73 68 66 69 68 65 63 62 65 68 72 72 79 90 96 63 61 85 94 98 77 93 91 96 92 100 100 100 99 99 99 98 62 71 90 80 55 52 50 49 54 66 62 61 66 66 58 59 60 58
82 77 56 58 65 66 64 56 51 51 56 56 62 77 81 78 74 84 70 100 99 98 99 99 96 100 100 100 100 100 100 100 99 92 99 93 68 66 72 63 52 65 58 53 52 61 88 76 77 68 61 63 64 63
79 79 71 62 64 68 69 70 59 54 58 58 74 91 94 93 96 94 55 97 99 99 99 99 94 96 100 99 99 100 100 100 100 99 99 97 91 88 68 58 80 72 70 75 70 57 57 69 71 70 66 66 65 66
50 63 72 72 64 69 72 71 62 41 46 70 80 96 99 99 97 85 66 74 98 99 99 99 96 94 100 99 99 99 100 98 98 93 88 95 96 90 52 83 90 81 70 80 69 63 71 68 71 68 66 67 65 63
99 98 96 86 75 72 68 65 50 42 66 79 98 98 100 75 72 79 93 98 99 99 97 97 100 96 99 99 98 97 93 89 94 73 76 74 58 56 61 77 75 70 61 69 79 87 82 76 70 67 66 66 64 64
99 99 98 98 96 80 70 70 62 72 88 98 97 83 82 75 70 98 99 98 99 99 99 94 97 97 100 95 92 90 90 86 79 71 74 70 66 62 71 77 72 68 64 62 47 45 60 62 70 70 69 66 67 67
98 100 100 99 98 94 89 85 82 95 96 89 79 78 85 82 99 98 98 94 94 86 93 91 98 99 84 83 83 82 83 82 65 76 79 78 74 64 76 75 69 70 66 60 52 52 65 71 71 70 68 68 68 62
98 99 100 98 98 94 100 97 92 96 78 84 73 91 92 98 96 97 96 92 95 88 86 92 94 77 64 62 84 84 85 91 81 80 65 62 74 83 88 76 75 73 62 52 58 65 67 72 72 68 70 68 62 58
100 97 99 99 98 99 96 96 94 80 75 63 90 100 96 96 90 86 79 77 75 77 79 72 89 80 80 86 91 81 91 81 86 88 74 72 85 89 86 72 73 70 58 53 62 66 69 73 72 71 69 61 58 60
92 98 98 98 97 95 94 82 72 75 65 63 72 83 98 76 85 97 88 82 80 75 64 70 76 75 88 89 87 87 88 93 83 81 79 85 88 85 83 74 70 63 59 56 62 64 68 72 72 65 60 60 63 65
95 92 92 94 97 84 78 89 89 80 81 84 91 94 94 92 86 98 98 85 77 64 56 60 80 83 78 86 84 86 85 84 76 84 97 98 92 84 78 68 63 62 61 60 63 66 66 65 61 60 63 66 73 77
98 100 92 80 75 92 80 72 80 83 82 90 98 100 100 92 82 98 92 76 64 54 84 81 74 72 82 86 80 78 88 81 98 100 99 99 88 78 73 68 67 67 66 65 65 67 65 62 63 66 68 77 78 63
99 87 80 77 86 85 65 70 92 87 96 97 98 99 100 96 99 100 83 72 62 62 71 73 78 85 86 78 86 90 96 99 100 100 100 97 86 78 73 69 70 70 69 68 66 65 64 67 69 73 76 73 63 59
82 93 80 78 74 64 66 72 80 95 98 97 98 99 100 99 100 93 80 67 58 58 68 81 88 90 93 94 91 79 84 91 99 100 99 91 84 76 73 72 71 71 70 70 70 70 71 73 75 73 67 63 61 59
56 49 52 57 67 60 66 71 80 85 96 98 95 95 99 98 88 78 70 67 70 73 81 94 94 98 99 100 99 96 90 94 100 100 97 90 83 76 73 71 72 72 73 74 75 76 74 74 70 68 66 65 62 59
47 48 48 53 58 61 73 77 85 95 96 96 97 95 97 97 98 98 92 71 64 98 97 100 99 100 90 97 100 100 100 99 97 90 82 83 79 76 75 75 73 72 72 71 68 70 72 72 73 72 69 67 65 61
33 30 36 54 61 72 78 86 87 92 96 98 89 88 81 81 95 95 95 71 99 100 99 92 89 84 91 96 97 98 96 92 86 82 79 76 75 77 78 74 71 70 71 72 74 75 78 79 82 81 77 75 68 68
28 28 35 50 57 64 78 75 75 77 93 95 83 75 81 78 86 84 92 97 97 100 99 89 86 92 88 96 93 93 95 92 81 78 77 76 75 76 78 77 75 75 78 84 89 91 92 95 96 94 91 92 88 88
33 34 42 54 64 84 76 77 82 80 78 84 83 88 86 83 91 91 89 97 96 100 98 90 90 98 100 99 94 92 93 88 84 86 85 82 80 84 85 84 87 89 93 96 96 96 97 94 96 95 95 96 95 95
43 62 58 88 79 81 89 92 90 85 95 96 81 79 87 95 88 92 82 82 99 100 92 89 92 90 90 93 96 98 98 95 89 82 87 90 89 93 93 92 93 93 97 97 96 95 94 95 95 96 96 96 95 95
79 86 77 94 93 76 85 89 95 90 96 99 90 88 98 87 76 58 76 74 90 91 89 94 97 99 99 99 99 99 98 97 93 93 91 91 89 86 86 86 87 88 88 90 94 95 97 96 97 97 96 96 96 96
93 97 86 98 99 91 90 95 89 91 94 83 95 99 88 73 65 68 90 70 76 80 80 84 85 84 81 88 95 95 98 100 99 91 88 90 94 92 89 86 87 89 92 92 94 94 96 97 97 96 96 97 96 96
98 97 100 94 96 98 90 97 96 93 93 96 94 92 78 63 59 98 100 80 57 45 61 75 71 73 77 83 81 78 87 90 92 92 93 91 90 90 89 89 92 93 91 90 88 97 100 100 98 96 96 96 96 96
88 90 98 97 100 96 92 90 87 92 95 99 92 86 93 100 100 100 100 100 81 69 62 63 71 80 88 88 88 87 84 79 78 80 81 79 83 86 88 89 91 88 94 94 88 90 95 98 97 97 97 96 96 96
87 90 98 100 100 99 90 90 90 94 91 94 93 97 98 96 96 98 100 100 100 82 72 71 72 76 76 74 76 81 81 80 75 76 74 72 75 77 81 83 84 84 91 95 93 91 89 91 95 95 94 94 93 90
87 88 92 99 96 94 88 97 99 99 95 96 94 97 92 97 95 94 98 99 100 98 89 87 84 88 85 84 89 87 76 71 71 72 73 72 72 77 81 85 86 88 91 96 96 96 94 94 95 95 94 92 92 93
89 94 100 100 94 95 100 98 98 94 90 94 97 96 95 96 99 100 98 96 98 96 100 98 94 90 94 95 93 88 81 78 78 80 82 84 84 84 86 88 88 84 89 98 98 98 97 96 95 96 96 96 96 97
97 100 100 100 93 91 90 97 84 86 93 95 95 98 95 88 92 100 100 100 99 98 98 97 97 97 98 98 100 100 100 98 94 91 88 87 90 93 96 96 94 92 92 96 96 96 96 96 96 96 97 96 96 97

GFSWCAN_850_rhum_168.txt.gz
RH
84 98 90 91 97 91 84 52 77 88 73 55 52 59 65 91 96 97 96 96 96 97 88 88 83 86 96 80 60 77 83 71 72 81 73 55 51 36 43 36 81 88 87 86 94 95 83 36 33 38 41 53 50 48
81 96 92 84 85 87 63 61 85 95 66 57 49 50 63 74 92 96 100 85 98 96 94 97 86 79 72 73 71 78 90 97 90 70 57 46 65 92 44 54 46 86 89 72 62 55 55 38 43 47 50 52 58 59
92 93 87 81 82 66 59 78 92 82 68 66 66 57 70 71 80 82 98 81 100 100 95 89 81 74 65 84 80 68 80 87 87 94 100 67 61 42 67 59 54 52 50 84 65 49 48 56 68 63 64 59 61 66
94 90 80 72 62 52 68 77 80 75 66 66 69 56 59 79 76 75 96 92 97 98 96 70 82 84 80 81 75 82 60 90 78 98 98 98 81 47 43 40 53 55 56 55 66 55 67 70 70 67 70 65 64 62
89 84 76 66 54 54 76 75 72 68 66 60 58 57 59 66 86 83 90 86 87 94 90 91 92 81 69 57 76 92 93 86 88 87 88 80 53 64 50 55 57 50 53 72 77 70 73 56 72 76 70 66 63 62
92 83 74 59 56 63 67 70 68 65 55 47 38 56 59 60 79 87 93 78 75 95 96 78 78 67 68 86 92 87 97 97 97 92 78 67 63 59 62 50 34 35 46 56 67 72 61 71 77 70 64 65 63 64
91 83 76 52 45 66 72 70 68 65 64 54 48 58 66 66 75 94 88 99 96 90 94 93 83 98 96 99 100 100 99 100 99 98 96 84 66 66 69 62 38 42 51 74 86 79 80 73 68 67 67 68 67 63
89 83 79 53 39 64 70 69 69 66 59 50 50 57 74 81 82 86 89 96 99 98 96 96 79 95 99 99 98 99 99 100 100 99 99 87 75 71 75 48 49 59 69 76 76 68 60 64 69 68 69 65 65 67
79 83 84 73 44 56 61 54 51 48 45 49 51 83 98 98 97 88 77 76 79 92 99 92 77 72 99 98 99 99 99 99 99 97 90 98 89 87 57 46 58 72 69 68 75 69 69 66 67 69 65 64 64 69
52 76 81 80 63 48 58 59 60 57 47 54 81 98 98 98 79 75 83 96 99 99 99 98 93 86 96 99 97 98 99 95 93 85 97 94 76 61 57 55 57 70 72 77 73 68 66 68 69 66 64 63 66 69
93 56 74 82 72 56 59 65 69 63 61 95 98 97 80 84 84 90 98 98 98 99 98 93 76 67 98 97 95 97 96 88 92 84 89 89 76 57 52 64 72 76 75 71 54 56 58 65 68 66 67 70 70 67
99 98 91 76 76 62 57 68 68 73 96 76 94 90 89 92 98 99 92 93 87 85 83 87 97 98 99 99 98 90 85 82 62 72 94 69 43 44 63 77 82 79 74 72 62 64 69 70 69 69 69 70 69 69
99 99 97 97 86 71 65 67 62 69 84 92 98 89 97 96 94 91 82 80 83 72 85 90 100 98 99 99 92 90 90 72 64 78 55 38 58 64 70 80 82 81 75 58 57 69 71 73 71 68 71 71 67 67
100 99 99 100 96 79 67 64 53 63 87 97 93 95 85 89 82 65 56 51 68 78 76 80 92 93 80 79 81 83 83 73 76 75 54 58 65 77 82 83 80 77 57 51 58 64 68 71 71 70 65 65 68 59
100 100 99 100 95 93 83 65 71 91 97 83 81 67 92 75 80 88 94 84 82 83 75 71 71 71 78 89 76 78 93 82 65 58 70 80 79 83 84 82 77 59 55 58 62 62 69 72 70 68 69 68 62 58
100 100 99 100 96 90 90 92 99 98 84 88 93 95 89 92 95 87 96 97 90 81 72 63 73 87 76 74 80 72 64 57 64 78 91 94 88 87 86 80 63 55 54 60 61 66 71 71 70 70 67 62 60 62
100 100 98 94 92 92 98 99 87 81 88 98 93 98 99 93 93 83 98 94 91 75 93 66 82 71 71 70 65 60 76 78 88 94 100 100 92 98 80 69 61 59 59 62 63 65 68 72 70 64 61 63 66 71
94 97 95 97 97 99 99 76 76 98 95 96 92 97 100 96 99 98 97 89 89 70 66 64 64 67 74 61 63 79 86 99 98 100 100 100 100 91 77 69 66 65 63 64 67 68 69 66 63 63 66 69 76 76
84 74 78 76 83 82 84 79 87 94 93 98 97 98 98 99 99 99 98 83 69 63 75 78 88 73 77 79 87 82 81 95 100 99 100 99 93 84 76 71 70 68 67 67 68 68 66 64 68 70 74 77 76 66
72 72 72 72 79 68 83 95 96 93 86 98 96 98 98 99 90 85 84 77 75 90 92 85 82 89 91 97 99 100 99 91 96 100 100 97 88 82 78 74 72 71 70 69 68 67 68 71 74 77 76 71 66 63
65 64 65 77 88 75 72 83 92 97 100 95 99 95 100 98 99 99 99 88 98 90 80 92 100 99 84 95 100 100 98 100 100 98 99 99 85 78 76 73 73 73 72 72 72 74 76 76 74 72 69 68 66 64
41 45 60 66 67 71 81 85 95 95 98 98 98 94 90 97 99 100 97 91 90 93 98 99 94 95 99 97 99 100 100 99 94 88 82 78 79 76 75 74 73 72 73 74 75 72 72 72 72 74 74 72 69 67
48 36 40 56 63 70 82 78 87 85 89 90 87 73 84 80 91 88 85 92 94 82 92 86 84 93 94 93 91 93 92 90 90 83 79 78 75 75 74 73 72 71 71 73 74 77 82 85 88 85 85 85 82 76
36 31 39 53 69 80 74 85 87 80 84 81 74 70 67 77 95 86 80 70 90 84 94 91 97 100 99 99 95 89 87 86 84 83 81 77 76 78 79 76 74 75 79 83 87 89 89 90 90 95 96 95 93 93
44 60 58 75 75 77 79 84 83 75 79 80 74 70 76 92 83 76 65 60 92 100 100 98 100 100 100 100 96 91 90 86 84 82 83 82 80 80 82 81 85 88 90 91 89 89 88 89 88 92 95 96 96 95
62 88 82 85 86 78 68 79 81 76 79 79 74 76 94 84 72 61 48 77 94 100 100 96 98 99 99 96 95 97 95 90 85 79 81 83 84 82 83 87 90 90 87 88 90 91 91 93 93 93 92 94 95 99
86 94 92 97 98 93 88 89 84 83 81 75 73 88 85 68 53 49 94 88 96 98 97 88 89 99 100 96 95 92 91 92 94 93 81 84 85 82 80 78 81 83 83 86 88 92 95 96 97 97 98 98 96 96
94 96 98 92 96 99 89 86 86 83 81 85 84 87 72 59 51 97 100 98 82 88 91 90 92 95 94 90 86 91 97 96 94 91 90 88 88 86 82 80 81 84 84 84 86 93 98 98 97 97 96 97 96 97
88 95 97 95 100 93 87 87 81 82 95 93 90 79 76 95 95 97 98 100 89 72 90 95 96 82 80 87 84 81 89 88 83 86 90 94 83 80 81 83 87 87 84 86 86 84 88 95 98 98 97 98 97 97
88 86 90 95 98 87 83 93 93 100 100 98 95 95 96 99 89 93 98 100 100 84 82 90 80 79 87 86 84 85 83 80 79 82 93 83 72 71 74 75 76 78 82 87 91 90 91 93 94 96 97 96 96 96
84 96 92 93 89 90 96 95 97 100 100 100 100 99 90 98 89 89 96 99 99 99 91 88 85 81 92 90 88 83 78 76 76 74 73 71 70 71 74 77 81 85 89 93 95 96 94 90 92 96 96 96 96 96
99 96 98 88 67 93 89 100 100 96 92 97 89 100 100 100 95 100 99 98 98 98 97 97 93 91 92 92 91 90 82 73 72 73 75 75 74 74 78 81 86 90 94 96 98 98 96 95 94 94 96 96 96 96
97 100 98 93 86 86 96 100 83 78 88 88 89 90 95 90 86 99 98 98 97 98 100 100 100 97 94 93 92 88 84 80 82 85 84 82 82 84 87 89 89 87 88 96 98 98 97 98 98 97 97 97 96 96

GFSWCAN_850_rhum_174.txt.gz
RH
84 84 84 84 82 84 84 84 89 92 92 91 74 60 75 76 79 88 98 100 97 97 90 79 67 62 60 75 84 56 70 64 73 96 84 64 59 45 45 40 46 64 81 76 76 83 72 31 27 36 35 27 35 38
77 76 80 80 76 74 85 88 89 90 91 90 58 76 73 69 77 90 97 94 93 100 95 97 96 88 79 72 79 95 77 61 68 98 87 88 69 56 48 80 47 59 62 80 57 51 36 26 27 36 42 41 44 42
73 76 78 72 68 74 84 90 88 93 95 66 75 81 64 54 60 76 94 100 99 99 97 92 79 66 82 84 84 99 87 83 95 71 62 59 69 68 69 55 52 39 34 68 83 64 45 38 36 58 72 59 47 48
80 84 81 72 67 76 92 84 85 88 68 67 83 62 43 44 54 64 90 96 97 98 95 58 53 61 64 61 67 70 71 80 93 88 68 64 60 45 51 60 79 65 49 54 63 54 66 60 61 54 64 57 51 52
88 82 82 59 74 91 93 83 81 68 60 81 83 55 57 54 63 75 87 86 96 99 97 75 60 54 58 60 58 59 64 66 74 88 84 71 46 47 44 44 48 31 58 81 80 68 83 62 53 58 62 56 53 52
86 86 67 48 80 91 83 78 57 61 83 87 73 72 66 54 63 92 98 90 73 98 98 74 47 47 47 53 61 60 60 60 72 100 94 64 49 53 69 55 29 26 28 51 68 42 57 59 81 75 74 69 73 55
80 69 54 96 96 84 71 52 63 77 76 73 70 66 61 59 66 98 98 96 94 98 99 73 55 42 44 48 53 60 58 61 70 80 93 71 61 58 90 80 46 40 34 28 43 53 78 77 81 82 93 94 98 100
81 58 84 99 93 76 46 50 75 78 76 74 56 49 49 61 80 93 74 80 80 93 96 81 62 53 68 59 67 78 78 76 90 94 78 69 61 60 72 42 38 35 31 28 35 66 68 81 78 88 93 86 78 72
46 54 90 96 86 65 44 65 76 72 65 60 57 60 80 91 97 75 76 80 94 72 95 79 67 72 83 77 80 95 95 99 88 98 72 68 69 74 50 41 38 33 31 32 48 74 83 88 91 93 99 100 71 58
34 86 89 97 84 53 49 68 71 71 67 63 68 91 100 90 83 85 92 98 98 100 99 77 58 84 98 91 98 97 98 98 99 92 65 87 76 52 45 41 38 35 37 42 67 77 79 88 91 97 84 60 57 58
41 93 90 96 81 45 58 68 70 72 71 86 88 92 82 98 93 87 93 90 81 84 78 66 58 69 72 97 88 87 91 97 95 70 90 86 65 51 47 50 46 42 40 54 64 76 78 84 83 74 61 57 57 60
70 92 95 96 79 37 61 70 73 82 76 78 80 80 80 98 87 88 80 71 76 66 73 73 64 65 63 66 84 99 94 99 88 98 98 89 71 44 40 39 44 44 46 62 76 85 73 70 65 59 55 58 61 64
91 94 98 91 71 35 66 69 52 72 70 78 76 89 98 78 94 89 89 78 75 88 92 100 100 99 99 99 98 100 97 85 64 94 69 86 54 52 51 71 77 71 75 80 81 66 64 60 60 58 61 64 67 67
95 94 97 86 58 38 66 60 60 76 80 87 96 92 85 82 69 61 62 84 88 95 95 96 99 100 99 100 95 95 85 75 72 73 69 76 64 61 67 92 85 88 89 79 68 58 60 61 63 64 66 67 68 68
88 87 95 86 66 42 53 57 68 83 86 97 88 86 79 61 62 70 79 80 80 77 71 82 100 94 100 99 92 94 91 84 77 89 95 74 69 73 83 78 81 72 67 63 64 64 65 65 66 68 69 70 68 65
80 82 97 84 63 43 51 69 80 83 83 97 93 82 75 86 98 93 90 90 82 95 85 92 100 99 96 95 96 87 69 53 89 83 88 83 78 78 97 92 75 73 68 68 69 68 69 69 68 70 71 69 68 66
83 93 88 76 55 50 75 92 88 84 94 96 80 80 83 88 92 98 95 90 87 96 96 74 96 73 69 75 83 62 82 93 89 90 91 93 99 96 80 77 78 72 70 69 69 71 73 71 70 69 68 71 69 63
99 79 74 57 56 72 91 92 90 99 90 79 80 88 90 96 92 91 91 98 96 85 73 76 65 54 72 64 62 96 75 83 85 84 87 92 99 100 84 80 74 72 70 70 72 74 73 73 71 71 70 69 64 61
89 85 77 71 78 83 77 80 96 83 69 74 80 79 89 92 94 98 94 95 98 99 100 93 82 69 64 69 77 75 81 92 96 100 91 87 96 99 92 76 78 76 71 72 74 75 74 75 76 72 68 64 63 64
72 71 68 73 89 98 91 91 80 86 68 80 87 92 89 92 90 98 98 97 99 100 96 90 78 86 91 97 94 96 96 100 97 99 98 98 99 100 94 81 82 74 73 76 77 74 81 88 84 74 67 71 76 76
84 83 89 98 100 99 94 89 98 94 94 95 89 83 86 87 92 87 92 88 95 98 81 77 79 84 81 70 79 98 99 99 99 99 96 99 100 100 99 99 80 82 77 80 78 86 89 85 82 78 76 87 95 87
92 84 94 97 98 94 83 78 71 84 94 88 91 85 83 99 98 92 83 91 91 82 77 76 91 100 97 94 99 94 100 98 97 94 100 99 99 100 100 89 98 95 94 82 88 80 98 100 84 77 79 86 91 97
69 71 79 84 84 83 85 85 85 84 91 84 80 79 81 82 83 85 86 79 76 72 78 86 85 90 97 93 83 86 95 99 99 98 98 99 98 98 99 100 100 100 100 100 99 94 100 88 81 77 85 82 96 100
94 96 74 80 82 87 88 87 78 70 69 75 72 80 71 79 83 78 79 66 64 91 99 100 100 100 100 100 99 98 90 100 98 99 98 100 100 99 98 99 100 100 100 100 100 98 82 77 72 76 86 93 100 100
71 78 69 81 92 81 85 82 79 67 77 75 76 75 78 72 78 75 73 59 89 95 91 97 97 98 99 98 99 100 100 99 99 99 98 99 99 98 99 100 100 100 90 80 80 75 76 79 83 87 92 100 100 100
78 95 86 79 76 74 67 78 77 77 70 76 76 70 81 77 80 74 65 90 90 92 96 98 100 99 98 94 91 97 100 100 100 100 99 100 99 100 100 100 100 95 78 76 74 81 80 78 80 90 100 100 100 100
74 80 72 76 70 64 71 71 65 66 71 71 71 78 77 81 73 68 84 96 95 96 91 94 97 98 99 99 96 100 97 99 98 99 100 100 100 100 99 96 96 86 80 79 76 78 78 82 88 96 100 100 100 100
79 74 71 69 76 68 73 70 70 72 67 72 66 75 75 67 73 92 99 98 78 76 83 98 100 99 98 100 97 95 99 100 100 100 100 100 100 100 100 100 98 92 72 69 74 82 93 91 100 100 100 100 100 100
74 76 73 86 82 73 73 74 69 67 74 68 75 69 58 76 95 87 87 92 82 75 90 100 100 100 100 100 98 96 99 95 96 95 99 100 89 91 90 89 84 81 75 76 78 83 96 100 100 100 100 100 96 94
64 82 72 53 80 64 55 73 79 84 94 85 81 76 74 72 72 79 90 98 100 99 98 99 99 100 100 100 100 100 94 90 96 94 96 95 99 87 76 76 76 76 77 78 77 78 84 90 96 100 100 99 98 98
61 74 66 59 56 54 66 69 62 67 72 81 80 87 86 85 78 81 94 99 100 98 100 99 98 99 100 99 99 100 100 100 100 100 100 99 100 99 87 83 79 80 83 80 78 81 83 88 97 100 100 100 100 99
70 64 62 70 66 58 60 68 70 72 73 74 73 68 68 72 74 85 96 94 99 100 98 98 97 95 97 99 97 99 100 96 86 92 95 98 98 90 78 80 85 86 83 82 86 88 95 100 100 100 100 100 100 100
55 60 62 63 57 50 54 55 47 45 48 55 54 52 56 61 70 96 96 95 96 99 97 96 96 95 98 96 98 98 100 98 94 88 86 83 79 77 77 80 84 85 88 93 100 100 100 100 100 100 100 100 100 100